W5ZYX Weather Reports


time (UTC)temp
F
wind
direction
speed
knots
gust
knots
rain 1hr
in
rain 24hr
in
rain mn
in
humidity
%
barometer
mb
20260509174038 80 164 0.9 4.3 0.00 0.01 0.01 86 1011.3
20260509173538 80 254 0.9 6.1 0.00 0.01 0.01 86 1011.3
20260509173049 80 0 0.0 6.1 0.00 0.01 0.01 86 1011.3
20260509172536 79 250 0.9 5.2 0.00 0.01 0.01 86 1011.4
20260509172039 79 167 0.0 5.2 0.00 0.01 0.01 89 1011.5
20260509171546 79 0 0.9 5.2 0.00 0.01 0.01 89 1011.5
20260509171036 79 0 0.0 3.5 0.00 0.01 0.01 89 1011.6
20260509170535 78 202 0.9 3.5 0.00 0.01 0.01 90 1011.6
20260509170051 78 170 0.0 3.5 0.00 0.01 0.01 89 1011.6
20260509165536 78 0 0.0 3.5 0.00 0.01 0.01 90 1011.7
20260509165036 78 247 0.9 3.5 0.00 0.01 0.01 90 1011.7
20260509164546 77 179 0.0 3.5 0.00 0.01 0.01 91 1011.8
20260509164039 77 179 0.0 3.5 0.00 0.01 0.01 91 1011.8
20260509163540 77 269 0.9 3.5 0.00 0.01 0.01 92 1011.8
20260509163054 77 203 0.9 3.5 0.00 0.01 0.01 92 1011.7
20260509162537 77 271 0.9 3.5 0.00 0.01 0.01 93 1011.7
20260509162039 76 288 1.7 5.2 0.00 0.01 0.01 93 1011.7
20260509161549 76 275 0.9 5.2 0.00 0.01 0.01 94 1011.8
20260509161036 76 298 0.0 4.3 0.00 0.01 0.01 95 1011.7
20260509160537 76 0 0.9 3.5 0.00 0.01 0.01 96 1011.7
20260509160050 75 0 0.0 2.6 0.00 0.01 0.01 96 1011.8
20260509155540 75 0 0.0 2.6 0.00 0.01 0.01 96 1011.8
20260509155036 74 142 0.0 2.6 0.00 0.01 0.01 96 1012.0
20260509154553 74 0 0.0 3.5 0.00 0.01 0.01 96 1012.1
20260509154040 74 0 0.9 3.5 0.00 0.01 0.01 96 1012.1
20260509153539 74 282 0.9 3.5 0.00 0.01 0.01 97 1012.1
20260509153049 74 261 0.9 3.5 0.00 0.01 0.01 96 1012.0
20260509152539 74 246 0.0 1.7 0.00 0.01 0.01 97 1011.9
20260509152037 74 0 0.0 2.6 0.00 0.01 0.01 97 1011.8
20260509151547 74 0 0.0 2.6 0.00 0.01 0.01 97 1011.8
20260509151036 74 263 0.0 3.5 0.00 0.01 0.01 97 1011.6
20260509150536 74 0 0.0 4.3 0.00 0.01 0.01 97 1011.6
20260509150049 74 113 0.0 4.3 0.00 0.01 0.01 97 1011.4
20260509145539 74 168 0.0 6.1 0.00 0.01 0.01 97 1011.3
20260509145039 74 188 1.7 6.1 0.00 0.01 0.01 97 1011.1
20260509144549 74 167 2.6 8.7 0.00 0.01 0.01 97 1011.0
20260509144039 73 146 2.6 8.7 0.00 0.01 0.01 97 1010.8
20260509143540 73 173 2.6 7.0 0.00 0.01 0.01 97 1011.0
20260509143047 73 168 1.7 4.3 0.00 0.01 0.01 97 1011.0
20260509142536 73 157 0.9 2.6 0.00 0.01 0.01 97 1011.1
20260509142039 73 0 0.0 1.7 0.00 0.01 0.01 97 1011.2
20260509141547 73 0 0.0 1.7 0.00 0.01 0.01 97 1011.3
20260509141036 73 157 0.0 1.7 0.00 0.01 0.01 97 1011.3
20260509140536 73 0 0.0 1.7 0.00 0.01 0.01 97 1011.2
20260509140056 73 0 0.0 0.9 0.00 0.01 0.01 97 1011.4
20260509135538 73 0 0.0 1.7 0.00 0.04 0.01 97 1011.3
20260509135039 73 0 0.0 1.7 0.00 0.04 0.01 97 1011.3
20260509134557 73 0 0.0 1.7 0.00 0.04 0.01 97 1011.1
20260509134035 73 0 0.0 2.6 0.00 0.04 0.01 97 1011.2
20260509133539 73 157 0.0 4.3 0.00 0.04 0.01 97 1011.1
20260509133053 73 0 0.9 4.3 0.00 0.04 0.01 97 1010.8
20260509132539 73 172 0.0 4.3 0.00 0.04 0.01 97 1010.8
20260509132040 72 166 0.9 8.7 0.00 0.04 0.01 97 1010.6
20260509131551 72 160 2.6 8.7 0.00 0.04 0.01 96 1010.6
20260509131039 72 0 0.9 7.8 0.00 0.04 0.01 96 1010.3
20260509130536 72 177 3.5 7.8 0.00 0.04 0.01 96 1010.0
20260509130052 72 173 4.3 7.8 0.00 0.04 0.01 96 1010.0
20260509125537 72 185 1.7 4.3 0.00 0.21 0.01 96 1010.2
20260509125038 72 173 0.9 6.1 0.00 0.21 0.01 96 1010.2
20260509124546 72 173 1.7 6.1 0.00 0.21 0.01 96 1010.1
20260509124036 72 132 1.7 6.1 0.00 0.21 0.01 96 1010.0
20260509123539 72 147 2.6 5.2 0.00 0.21 0.01 96 1010.0
20260509123045 72 147 0.9 3.5 0.00 0.21 0.01 96 1010.2
20260509122535 72 131 0.9 2.6 0.00 0.21 0.01 96 1010.4
20260509122039 72 215 0.0 0.9 0.00 0.21 0.01 96 1010.6
20260509121547 72 0 0.0 0.0 0.00 0.21 0.01 96 1010.9
20260509121039 71 0 0.0 0.9 0.00 0.21 0.01 96 1010.9
20260509120536 72 0 0.0 0.9 0.00 0.21 0.01 96 1011.0
20260509120054 72 0 0.0 0.9 0.00 0.21 0.01 96 1011.1
20260509115538 71 0 0.0 0.9 0.00 0.84 0.01 96 1011.0
20260509115036 71 0 0.0 2.6 0.00 0.84 0.01 96 1011.1
20260509114547 71 0 0.0 2.6 0.01 0.84 0.01 96 1011.0
20260509114036 71 350 0.9 4.3 0.01 0.84 0.01 96 1011.1
20260509113540 71 350 1.7 4.3 0.01 0.84 0.01 95 1011.1
20260509113048 71 350 1.7 4.3 0.01 0.84 0.01 96 1011.2
20260509112536 71 350 1.7 3.5 0.01 0.84 0.01 96 1011.1
20260509112036 71 288 1.7 3.5 0.01 0.84 0.01 96 1010.9
20260509111549 71 288 1.7 2.6 0.01 0.84 0.01 96 1010.9
20260509111035 71 288 0.0 1.7 0.01 0.84 0.01 96 1010.9
20260509110539 71 0 0.0 2.6 0.01 0.84 0.01 96 1010.7
20260509110049 71 0 0.0 2.6 0.01 0.84 0.01 96 1010.5
20260509105536 71 0 0.0 2.6 0.01 0.84 0.01 95 1010.3
20260509105039 71 221 0.9 2.6 0.00 0.83 0.00 95 1010.3
20260509104550 71 0 0.0 0.9 0.00 0.83 0.00 95 1010.5
20260509104037 71 0 0.0 0.0 0.00 0.83 0.00 95 1010.6
20260509103535 71 0 0.0 0.0 0.00 0.83 0.00 95 1010.6
20260509103047 71 0 0.0 0.0 0.00 0.83 0.00 95 1010.6
20260509102536 71 0 0.0 3.5 0.00 0.83 0.00 95 1010.6
20260509102037 71 0 0.0 3.5 0.00 0.83 0.00 95 1010.7
20260509101556 71 283 0.9 3.5 0.00 0.83 0.00 95 1010.7
20260509101037 72 0 0.0 1.7 0.00 0.83 0.00 95 1010.6
20260509100536 71 0 0.0 1.7 0.00 0.83 0.00 95 1010.6
20260509100047 71 148 0.0 4.3 0.00 0.83 0.00 95 1010.7
20260509095536 71 0 0.0 4.3 0.00 0.83 0.00 95 1010.6
20260509095036 71 148 1.7 4.3 0.00 0.83 0.00 95 1010.4
20260509094552 72 132 1.7 4.3 0.00 0.83 0.00 95 1010.6
20260509094038 72 13 1.7 4.3 0.00 0.83 0.00 94 1010.8
20260509093539 72 13 2.6 4.3 0.00 0.83 0.00 94 1010.9
20260509093056 72 360 1.7 4.3 0.00 0.83 0.00 94 1010.9
20260509092538 72 360 1.7 4.3 0.00 0.83 0.00 94 1010.9
20260509092038 72 150 1.7 4.3 0.00 0.83 0.00 94 1011.0
20260509091551 72 150 1.7 4.3 0.00 0.83 0.00 95 1011.0
20260509091036 72 150 0.0 1.7 0.00 0.83 0.00 94 1010.9
20260509090540 72 0 0.0 0.0 0.00 0.83 0.00 94 1011.0
20260509090047 72 0 0.0 0.0 0.00 0.83 0.00 94 1011.0
20260509085536 72 0 0.0 0.0 0.00 0.83 0.00 94 1010.9
20260509085036 72 0 0.0 0.0 0.00 0.83 0.00 94 1010.9
20260509084555 72 0 0.0 0.9 0.00 0.83 0.00 94 1010.7
20260509084038 72 0 0.0 0.9 0.00 0.83 0.00 94 1010.7
20260509083539 72 0 0.0 1.7 0.00 0.83 0.00 94 1010.9
20260509083047 72 0 0.0 1.7 0.00 0.83 0.00 94 1010.9
20260509082536 72 0 0.0 1.7 0.00 0.83 0.00 94 1010.9
20260509082037 72 0 0.0 1.7 0.00 0.83 0.00 94 1010.8
20260509081550 72 0 0.0 0.0 0.00 0.83 0.00 94 1010.9
20260509081039 72 0 0.0 0.0 0.00 0.83 0.00 94 1011.0
20260509080536 72 0 0.0 0.0 0.00 0.83 0.00 94 1011.2
20260509080055 72 0 0.0 0.0 0.00 0.83 0.00 94 1011.3
20260509075536 72 0 0.0 0.0 0.00 0.83 0.00 94 1011.5
20260509075039 72 0 0.0 1.7 0.00 0.83 0.00 94 1011.6
20260509074547 72 0 0.0 1.7 0.00 0.83 0.00 94 1011.6
20260509074036 72 0 0.0 1.7 0.00 0.83 0.00 94 1011.5
20260509073536 72 0 0.0 1.7 0.00 0.83 0.00 94 1011.6
20260509073048 72 0 0.0 1.7 0.00 0.83 0.00 94 1011.5
20260509072537 72 0 0.0 1.7 0.00 0.83 0.00 94 1011.3
20260509072035 72 0 0.0 1.7 0.00 0.83 0.00 94 1011.3
20260509071548 72 150 0.0 0.9 0.00 0.83 0.00 94 1011.3
20260509071036 72 0 0.0 0.9 0.00 0.83 0.00 94 1011.2
20260509070537 72 0 0.0 2.6 0.00 0.83 0.00 94 1011.1
20260509070054 72 0 0.0 2.6 0.00 0.83 0.00 94 1011.0
20260509065535 72 150 0.9 4.3 0.00 0.83 0.00 94 1010.9
20260509065037 72 150 0.9 5.2 0.00 0.83 0.00 94 1010.8
20260509064546 72 150 0.9 5.2 0.00 0.83 0.00 94 1010.7
20260509064037 72 173 1.7 4.3 0.00 0.83 0.00 93 1010.6
20260509063536 72 189 0.9 3.5 0.00 0.83 0.00 93 1010.6
20260509063049 72 0 0.9 3.5 0.00 0.83 0.00 93 1010.8
20260509062536 72 0 0.9 2.6 0.00 0.83 0.00 93 1010.9
20260509062037 72 146 0.0 1.7 0.00 0.83 0.00 93 1010.9
20260509061543 72 0 0.0 3.5 0.00 0.83 0.00 93 1011.0
20260509061037 72 146 0.0 4.3 0.00 0.83 0.00 93 1010.9
20260509060536 71 146 0.9 5.2 0.00 0.83 0.00 93 1010.9
20260509060049 71 171 0.9 5.2 0.00 0.83 0.00 93 1010.9
20260509055536 71 168 0.9 4.3 0.00 0.83 0.00 93 1010.9
20260509055035 71 168 0.9 5.2 0.00 0.83 0.00 93 1010.8
20260509054554 71 168 1.7 5.2 0.00 0.83 0.00 93 1010.9
20260509054036 71 168 1.7 5.2 0.00 0.83 0.00 93 1010.9
20260509053537 71 146 1.7 4.3 0.00 0.83 0.00 93 1011.0
20260509053047 71 0 0.9 3.5 0.00 0.83 0.00 93 1011.2
20260509052537 71 0 0.0 4.3 0.00 0.83 0.00 93 1011.1
20260509052038 71 0 0.9 4.3 0.00 0.83 0.00 93 1011.1
20260509051557 71 161 0.9 4.3 0.00 0.83 0.00 92 1011.1
20260509051036 71 161 0.9 4.3 0.00 0.83 0.00 92 1011.1
20260509050536 71 0 0.9 5.2 0.00 0.83 0.00 92 1011.0
20260509050048 71 0 2.6 5.2 0.00 0.83 0.00 92 1010.9
20260509045536 71 137 2.6 5.2 0.00 0.83 0.83 92 1010.8
20260509045036 71 136 1.7 6.1 0.00 0.83 0.83 92 1010.8
20260509044547 71 123 0.9 6.1 0.00 0.83 0.83 92 1010.8
20260509044041 71 138 3.5 7.0 0.00 0.83 0.83 92 1010.7
20260509043539 71 138 3.5 7.8 0.00 0.83 0.83 92 1010.7
20260509043050 71 151 3.5 9.6 0.00 0.83 0.83 92 1010.8
20260509042537 71 139 4.3 9.6 0.00 0.83 0.83 92 1010.7
20260509042036 71 175 4.3 9.6 0.00 0.83 0.83 92 1010.7
20260509041551 71 144 5.2 9.6 0.00 0.83 0.83 93 1010.6
20260509041036 71 133 3.5 7.0 0.00 0.83 0.83 93 1010.7
20260509040536 71 133 2.6 7.0 0.00 0.83 0.83 93 1010.8
20260509040049 71 151 2.6 5.2 0.00 0.83 0.83 92 1010.8
20260509035539 71 159 1.7 4.3 0.00 0.83 0.83 92 1010.7
20260509035039 71 159 1.7 4.3 0.00 0.83 0.83 92 1010.7
20260509034550 71 159 0.9 3.5 0.00 0.83 0.83 92 1010.7
20260509034035 71 0 0.0 0.9 0.00 0.83 0.83 92 1010.7
20260509033537 71 0 0.0 0.0 0.00 0.83 0.83 92 1010.7
20260509033100 71 0 0.0 0.9 0.00 0.83 0.83 92 1010.7
20260509032536 71 0 0.0 0.9 0.00 0.83 0.83 92 1010.7
20260509032037 71 0 0.0 0.0 0.00 0.83 0.83 92 1010.6
20260509031552 71 0 0.0 0.0 0.00 0.83 0.83 92 1010.6
20260509031039 71 0 0.0 0.0 0.00 0.83 0.83 91 1010.4
20260509030540 71 0 0.0 0.0 0.00 0.83 0.83 91 1010.3
20260509030052 71 0 0.0 0.0 0.00 0.83 0.83 91 1010.3
20260509025539 72 0 0.0 3.5 0.00 0.83 0.83 91 1010.2
20260509025036 72 0 0.0 4.3 0.00 0.83 0.83 92 1010.1
20260509024546 72 159 0.9 4.3 0.00 0.83 0.83 92 1010.0
20260509024036 72 213 0.9 5.2 0.00 0.83 0.83 91 1010.0
20260509023536 72 164 0.9 5.2 0.00 0.83 0.83 91 1009.9
20260509023051 72 159 1.7 4.3 0.00 0.83 0.83 91 1009.8
20260509022539 72 129 0.9 1.7 0.00 0.83 0.83 91 1009.8
20260509022036 72 129 0.0 1.7 0.00 0.83 0.83 91 1009.8
20260509021550 73 0 0.0 1.7 0.00 0.83 0.83 91 1009.9
20260509021036 73 0 0.0 2.6 0.00 0.83 0.83 91 1009.8
20260509020539 73 0 0.9 6.1 0.00 0.83 0.83 91 1009.8
20260509020047 73 0 0.9 6.1 0.00 0.83 0.83 90 1009.6
20260509015539 73 129 1.7 6.1 0.00 0.83 0.83 90 1009.6
20260509015039 73 150 1.7 5.2 0.00 0.83 0.83 90 1009.5
20260509014549 73 124 1.7 5.2 0.00 0.83 0.83 90 1009.6
20260509014036 73 143 1.7 4.3 0.00 0.83 0.83 90 1009.7
20260509013536 73 165 0.9 6.1 0.00 0.83 0.83 89 1009.6
20260509013053 73 157 1.7 6.1 0.00 0.83 0.83 89 1009.6
20260509012536 73 147 1.7 6.1 0.00 0.83 0.83 89 1009.4
20260509012036 73 117 2.6 7.0 0.00 0.83 0.83 89 1009.3
20260509011556 73 111 1.7 7.0 0.00 0.83 0.83 89 1009.3
20260509011039 74 127 2.6 7.0 0.00 0.83 0.83 89 1009.3
20260509010538 74 118 2.6 5.2 0.00 0.83 0.83 89 1009.3
20260509010051 74 132 1.7 5.2 0.00 0.83 0.83 89 1009.4
20260509005536 74 130 1.7 6.1 0.00 0.83 0.83 88 1009.4
20260509005040 74 164 1.7 6.1 0.00 0.83 0.83 88 1009.4
20260509004559 74 131 2.6 6.1 0.00 0.83 0.83 88 1009.4
20260509004037 74 123 1.7 5.2 0.00 0.83 0.83 87 1009.6
20260509003537 75 111 0.9 5.2 0.00 0.83 0.83 87 1009.6
20260509003049 75 111 1.7 5.2 0.00 0.83 0.83 87 1009.5
20260509002538 75 126 0.9 5.2 0.00 0.83 0.83 86 1009.6
20260509002037 75 144 1.7 3.5 0.00 0.83 0.83 86 1009.6
20260509001547 75 0 0.9 3.5 0.00 0.83 0.83 86 1009.6
20260509001040 75 68 0.9 5.2 0.00 0.83 0.83 86 1009.5
20260509000541 76 109 1.7 5.2 0.00 0.83 0.83 85 1009.6
20260509000049 76 71 0.9 5.2 0.00 0.83 0.83 86 1009.7
20260508235536 76 111 1.7 5.2 0.00 0.83 0.83 85 1009.6
20260508235037 76 0 0.9 5.2 0.00 0.83 0.83 86 1009.7
20260508234550 75 107 1.7 5.2 0.00 0.83 0.83 86 1009.8
20260508234037 75 107 1.7 3.5 0.00 0.83 0.83 85 1009.9
20260508233536 75 107 0.0 5.2 0.00 0.83 0.83 85 1009.9
20260508233110 75 107 1.7 5.2 0.00 0.83 0.83 85 1009.9
20260508232536 75 107 1.7 5.2 0.00 0.83 0.83 85 1010.0
20260508232038 75 107 0.9 6.1 0.00 0.83 0.83 85 1010.2
20260508231553 76 107 2.6 6.1 0.00 0.83 0.83 84 1010.2
20260508231039 76 107 1.7 5.2 0.00 0.83 0.83 84 1010.2
20260508230538 76 55 0.9 3.5 0.00 0.83 0.83 85 1010.2
20260508230055 76 0 0.0 3.5 0.00 0.83 0.83 85 1010.1
20260508225539 76 168 0.0 5.2 0.00 0.83 0.83 85 1010.2
20260508225040 76 168 1.7 5.2 0.00 0.83 0.83 84 1010.2
20260508224610 76 0 0.0 3.5 0.00 0.83 0.83 84 1010.0
20260508224040 76 0 0.9 3.5 0.00 0.83 0.83 84 1010.1
20260508223539 76 0 0.9 3.5 0.00 0.83 0.83 85 1010.1
20260508223052 76 139 0.0 4.3 0.00 0.83 0.83 84 1010.1
20260508222537 76 132 0.9 4.3 0.00 0.83 0.83 84 1010.2
20260508222036 76 136 1.7 4.3 0.00 0.83 0.83 83 1010.4
20260508221553 76 129 1.7 5.2 0.00 0.83 0.83 83 1010.4
20260508221037 77 104 1.7 5.2 0.00 0.83 0.83 82 1010.2
20260508220535 77 94 0.0 5.2 0.00 0.83 0.83 83 1010.2
20260508220048 77 94 1.7 6.1 0.00 0.83 0.83 82 1010.2
20260508215539 77 0 0.9 6.1 0.00 0.83 0.83 83 1010.2
20260508215038 77 5 0.9 6.1 0.00 0.83 0.83 82 1010.1
20260508214550 77 0 1.7 6.1 0.00 0.83 0.83 81 1010.2
20260508214040 78 132 0.9 5.2 0.00 0.83 0.83 83 1010.1
20260508213538 77 0 1.7 3.5 0.00 0.83 0.83 83 1010.2
20260508213048 77 147 0.9 5.2 0.00 0.83 0.83 83 1010.2
20260508212538 77 147 1.7 5.2 0.00 0.83 0.83 82 1010.3
20260508212038 76 205 1.7 6.1 0.00 0.83 0.83 83 1010.4
20260508211549 76 0 2.6 6.1 0.00 0.83 0.83 83 1010.4
20260508211037 76 0 0.0 8.7 0.00 0.83 0.83 84 1010.4
20260508210537 75 107 0.9 8.7 0.00 0.83 0.83 84 1010.5
20260508210050 75 133 0.9 7.0 0.00 0.83 0.83 85 1010.6
20260508205536 75 127 0.9 7.0 0.00 0.83 0.83 84 1010.5
20260508205037 75 132 1.7 7.0 0.00 0.83 0.83 84 1010.6
20260508204552 75 140 2.6 5.2 0.00 0.83 0.83 85 1010.7
20260508204039 75 97 1.7 7.8 0.00 0.83 0.83 84 1010.7
20260508203536 75 57 2.6 7.8 0.00 0.83 0.83 85 1010.8
20260508203053 75 70 2.6 6.1 0.00 0.83 0.83 84 1010.9
20260508202538 75 111 2.6 6.1 0.00 0.83 0.83 84 1010.9
20260508202037 74 117 0.0 5.2 0.00 0.83 0.83 85 1011.1
20260508201547 74 150 1.7 4.3 0.00 0.83 0.83 85 1011.1
20260508201036 74 61 0.0 4.3 0.00 0.83 0.83 86 1011.3
20260508200540 74 0 0.9 4.3 0.00 0.83 0.83 86 1011.3
20260508200104 73 109 2.6 4.3 0.00 0.83 0.83 86 1011.4
20260508195539 73 5 1.7 3.5 0.00 0.83 0.83 86 1011.5
20260508195041 73 34 1.7 4.3 0.00 0.83 0.83 86 1011.8
20260508194553 73 74 1.7 4.3 0.00 0.83 0.83 86 1011.8
20260508194038 73 65 1.7 4.3 0.00 0.83 0.83 86 1011.7
20260508193540 73 0 0.0 3.5 0.00 0.83 0.83 87 1011.9
20260508193054 72 44 0.9 4.3 0.00 0.83 0.83 87 1012.0
20260508192540 72 0 2.6 5.2 0.00 0.83 0.83 87 1012.0
20260508192037 72 355 0.0 5.2 0.00 0.83 0.83 87 1012.1
20260508191552 72 103 0.9 4.3 0.00 0.83 0.83 88 1012.2
20260508191039 71 0 0.0 4.3 0.00 0.83 0.83 88 1012.2
20260508190540 71 13 2.6 4.3 0.00 0.83 0.83 88 1012.2
20260508190052 71 355 1.7 4.3 0.00 0.83 0.83 89 1012.3
20260508185540 71 103 0.9 4.3 0.00 0.83 0.83 90 1012.3
20260508185040 70 92 0.9 5.2 0.00 0.83 0.83 90 1012.2
20260508184552 70 32 2.6 5.2 0.00 0.83 0.83 90 1012.4
20260508184039 70 94 1.7 6.1 0.00 0.83 0.83 90 1012.4
20260508183539 70 101 2.6 7.0 0.00 0.83 0.83 90 1012.5
20260508183049 69 33 3.5 7.0 0.00 0.83 0.83 91 1012.5
20260508182538 69 55 2.6 7.8 0.00 0.83 0.83 91 1012.5
20260508182039 69 38 4.3 7.8 0.00 0.83 0.83 91 1012.7
20260508181552 69 48 3.5 7.0 0.00 0.83 0.83 91 1012.8
20260508181039 69 81 1.7 7.0 0.00 0.83 0.83 91 1013.0
20260508180537 69 35 1.7 6.1 0.00 0.83 0.83 92 1013.0
20260508180053 68 58 2.6 7.0 0.00 0.83 0.83 92 1013.1
20260508175537 68 83 3.5 8.7 0.00 0.83 0.83 93 1013.0
20260508175036 68 0 3.5 8.7 0.00 0.83 0.83 93 1013.0
20260508174600 67 23 5.2 8.7 0.00 0.83 0.83 92 1013.1